カタログに戻る

CZ-6A DEB

運用中PO
NORAD 54463·DEBRIS·🇨🇳 China

打ち上げ Nov 11, 2022 から Taiyuan Satellite Launch Center

Loading…

次のパス (今後24時間)

TLE

最新Source: Space-Track

元期: Sep 14, 2026, 12:43 UTC

1 54463U 22151GP  26257.53033171  .00002473  00000-0  37857-3 0  9997
2 54463  98.6570 354.5923 0121082 297.5538  61.3407 14.69941045204328

AllMySatでCZ-6A DEBをリアルタイム追跡

Download on the App Store